Bartlesville, OK

6:26 PM CDT on April 23, 2018 (GMT -0500)
Bartlesville Municipal

Weather History for KBVO - November, 2012

Change the Weather History Date:

Sunday, November 4, 2012

  Actual Average Record
Temperature  
Mean Temperature 49 °F -  
Max Temperature 68 °F 63 °F 84 °F (2005)
Min Temperature 32 °F 38 °F 15 °F (1991)
Degree Days  
Heating Degree Days 16    
Moisture  
Dew Point 36 °F    
Average Humidity 72    
Maximum Humidity 100    
Minimum Humidity 32    
Precipitation  
Precipitation 0.00 in - - ()
Sea Level Pressure  
Sea Level Pressure 30.16 in    
Wind  
Wind Speed 1 mph (SE)    
Max Wind Speed 7 mph    
Max Gust Speed -    
Visibility 10 miles    
Events      
Averages and records for this station are not official NWS values.
T = Trace of Precipitation, MM = Missing Value Source: NWS Daily Summary

Daily Weather History Graph

Daily Weather History Graph

Search for Another Location

Airport or City:

Astronomy

Nov. 04, 2012 Rise Set
Actual Time 6:51 AM CST 5:23 PM CST
Civil Twilight 6:24 AM CST 5:50 PM CST
Nautical Twilight 5:53 AM CST 6:21 PM CST
Astronomical Twilight 5:23 AM CST 6:51 PM CST
Moon 10:03 PM CST (11/4) 11:34 AM CST (11/4)
Length of Visible Light 11h 26m
Length of Day
10h 32m
Waning Gibbous, 72% of the Moon is Illuminated
Nov 4
Waning Gibbous
Nov 6
Last Quarter
Nov 13
New
Nov 20
First Quarter
Nov 28
Full

Hourly Weather History & Observations

Time (CST) Temp. Dew Point Humidity Pressure Visibility Wind Dir Wind Speed Gust Speed Precip Events Conditions
12:53 AM 37.9 °F 35.1 °F 89% 30.20 in 10.0 mi Calm Calm - N/A   Clear
1:53 AM 37.0 °F 35.1 °F 93% 30.20 in 10.0 mi Calm Calm - N/A   Clear
1:53 AM 35.1 °F 34.0 °F 96% 30.21 in 10.0 mi Calm Calm - N/A   Clear
2:53 AM 33.1 °F 32.0 °F 96% 30.22 in 10.0 mi Calm Calm - N/A   Clear
3:53 AM 33.1 °F 30.9 °F 92% 30.21 in 10.0 mi Calm Calm - N/A   Clear
4:53 AM 33.1 °F 33.1 °F 100% 30.22 in 10.0 mi Calm Calm - N/A   Clear
5:53 AM 32.0 °F 32.0 °F 100% 30.24 in 10.0 mi Calm Calm - N/A   Clear
6:53 AM 32.0 °F 32.0 °F 100% 30.24 in 9.0 mi Calm Calm - N/A   Clear
7:53 AM 37.0 °F 36.0 °F 96% 30.24 in 10.0 mi Calm Calm - N/A   Clear
8:53 AM 46.0 °F 39.9 °F 79% 30.23 in 10.0 mi Calm Calm - N/A   Clear
9:53 AM 53.1 °F 39.0 °F 59% 30.23 in 10.0 mi Calm Calm - N/A   Clear
10:53 AM 57.9 °F 39.0 °F 49% 30.23 in 10.0 mi Calm Calm - N/A   Clear
11:53 AM 61.0 °F 39.0 °F 44% 30.19 in 10.0 mi Calm Calm - N/A   Clear
12:53 PM 64.9 °F 39.0 °F 39% 30.15 in 10.0 mi Calm Calm - N/A   Clear
1:53 PM 66.9 °F 37.0 °F 33% 30.12 in 10.0 mi SE 6.9 mph - N/A   Clear
2:53 PM 66.9 °F 36.0 °F 32% 30.09 in 10.0 mi SE 5.8 mph - N/A   Clear
3:53 PM 66.9 °F 36.0 °F 32% 30.07 in 10.0 mi Variable 3.5 mph - N/A   Clear
4:53 PM 62.1 °F 36.0 °F 38% 30.06 in 10.0 mi SSE 4.6 mph - N/A   Clear
5:53 PM 51.1 °F 37.9 °F 61% 30.07 in 10.0 mi Calm Calm - N/A   Clear
6:53 PM 46.0 °F 37.9 °F 73% 30.08 in 10.0 mi Calm Calm - N/A   Clear
7:53 PM 42.1 °F 36.0 °F 79% 30.08 in 10.0 mi Calm Calm - N/A   Clear
8:53 PM 39.9 °F 36.0 °F 86% 30.08 in 10.0 mi Calm Calm - N/A   Clear
9:53 PM 43.0 °F 39.0 °F 86% 30.07 in 10.0 mi Calm Calm - N/A   Clear
10:53 PM 45.0 °F 39.0 °F 80% 30.07 in 10.0 mi Calm Calm - N/A   Clear